GSAT0201 (GALILEO 5) (40128 NORAD) Tracking and Keplerian Element Data

This shows tracking and keplerian element data for the satellite.

Feedback or suggestion? Click here.




ElementValue
Catalog40128
NameGSAT0201 (GALILEO 5)
Epoch Orbit6459
Epoch Day159.38556062
Epoch Year2024
RAAN303.4575
Inclination49.6707
Eccentricity0.1611297
Argument of Perigee150.8594
Mean Anonmoly219.1999
Mean Motion1.85519407
Decay Rate-9.8E-07
L11 40128U 14050A 24159.38556062 -.00000098 00000+0 00000+0 0 9997
L22 40128 49.6707 303.4575 1611297 150.8594 219.1999 1.85519407 64590



Live tracking and technical data element details for GSAT0201 (GALILEO 5) (NORAD 40128). GSAT0201 (GALILEO 5) can be tracked NOW for your location showing map with azimuth and elevation plus other details from your city location.







IsCatalogInMostPopularTable: catalog: 40128, numindb: 724
Update: records affected: 1



GetName: 40128 GSAT0201 (GALILEO 5)

Hit Count: updated at: Fri, 14 Jun 2024 19:17:14 GMT